Regional Weather Roundup
Issued by NWS Charleston, SC

Current Version | Previous Version | Graphics & Text | Print | Product List | Glossary On
Versions: 1 2 3 4 5 6 7 8 9 10 11 12 13 14 15 16 17 18 19 20 21 22 23 24 25 26 27 28 29 30 31 32 33 34 35 36 37 38 39 40 41 42 43 44 45 46 47 48 49 50
000
ASUS42 KCHS 270613
RWRCHS

REGIONAL WEATHER ROUNDUP
NATIONAL WEATHER SERVICE CHARLESTON SC
200 AM EDT TUE SEP 27 2016

NOTE: "FAIR" INDICATES FEW OR NO CLOUDS BELOW 12,000 FEET WITH NO
SIGNIFICANT WEATHER AND/OR OBSTRUCTIONS TO VISIBILITY.

NOT ALL STATIONS ARE QUALITY CONTROLLED. USE DATA WITH CAUTION...
ESPECIALLY DEWPOINT OBSERVATIONS.

SCZ027-030-031-034>040-042>050-270700-
...SOUTHEAST SOUTH CAROLINA...

CITY           SKY/WX    TMP DP  RH WIND       PRES   REMARKS
N CHARLESTON   CLOUDY    75  72  90 NE5       29.97F
6HR MIN TEMP:  75; 6HR MAX TEMP:  77; 6HR PCP:  0.09;

WATERFRONT PRK   N/A     76  74  93 N7        29.96F
MOUNT PLEASANT FAIR      73  73 100 CALM      29.98F FOG
JOHNS ISLAND   FAIR      75  75 100 N5        29.97F FOG
PINOPOLIS        N/A     75  73  94 VRB3      29.93F
MONCKS CORNER  FAIR      72  70  94 NE3       29.98F
SUMMERVILLE    FAIR      72  72 100 CALM      30.00F FOG
BEAUFORT MCAS  PTCLDY    74  71  91 N5        29.97F
6HR MIN TEMP:  73; 6HR MAX TEMP:  75;

BEAUFORT ARPT  FAIR      72  72 100 N3        29.97F
HILTON HEAD IS HVY RAIN  75  73  94 W8        29.97F
WALTERBORO     CLOUDY    73 N/A N/A NE3       29.98F
ALLENDALE      FAIR      72  70  94 CALM      29.99S

...SOUTHERN MIDLANDS AND PEE DEE...

CITY           SKY/WX    TMP DP  RH WIND       PRES   REMARKS
GEORGETOWN     FAIR      72  70  94 CALM      30.00F
KINGSTREE      FAIR      70  68  94 CALM      30.00S FOG
ORANGEBURG     CLOUDY    72  71  97 CALM      30.01S
6HR MIN TEMP:  71; 6HR MAX TEMP:  76;

BARNWELL       NOT AVBL
AIKEN          FAIR      64  64 100 W3        30.05S
MANNING        FAIR      70  68  94 CALM      30.00S
COLUMBIA       PTCLDY    73  70  90 CALM      30.01F
6HR MIN TEMP:  71; 6HR MAX TEMP:  78;

SUMTER         CLOUDY    70  67  91 NE2       29.99F
6HR MIN TEMP:  69; 6HR MAX TEMP:  74;

FLORENCE       CLOUDY    73  70  90 CALM      30.01F
6HR MIN TEMP:  73; 6HR MAX TEMP:  77;

MYRTLE BEACH   CLOUDY    79  64  61 SE8       30.02S
N MYRTLE BEACH MOCLDY    78  72  81 S7        30.00R
6HR MIN TEMP:  74; 6HR MAX TEMP:  79; 6HR PCP:  0.07;


$$

GAZ063-065-086>088-099>101-113>116-118-119-134>141-150-270700-
...SOUTHEAST GEORGIA...

CITY           SKY/WX    TMP DP  RH WIND       PRES   REMARKS
SAVANNAH ARPT  LGT RAIN  72  69  90 E5        29.98F
6HR MIN TEMP:  72; 6HR MAX TEMP:  77;

HUNTER AAF     MOCLDY    72  72 100 E2        29.94F
6HR MIN TEMP:  72; 6HR MAX TEMP:  78; 6HR PCP:  0.26;

FORT STEWART   CLEAR     71  69  93 CALM      29.95F
6HR MIN TEMP:  71; 6HR MAX TEMP:  74;

STATESBORO     FOG       72  72 100 CALM      29.99S VSB 1/2
SYLVANIA       NOT AVBL
CLAXTON        FAIR      69  69 100 CALM      29.99S FOG

...CSRA...CENTRAL AND FAR SOUTHEAST GEORGIA...

CITY           SKY/WX    TMP DP  RH WIND       PRES   REMARKS
THOMSON        CLEAR     69  69  98 CALM      30.07S
AUGUSTA-BUSH   PTCLDY    66  66 100 CALM      30.00F FOG
6HR MIN TEMP:  66; 6HR MAX TEMP:  74;

AUGUSTA-DANIEL CLEAR     74  67  78 CALM      30.02F
SWAINSBORO     FAIR      70  68  94 CALM      30.01S
VIDALIA        CLEAR     72  72 100 CALM      29.99F FOG
EASTMAN        FOG       70  70 100 CALM      30.02F VSB 1
HAZLEHURST     FAIR      72  72 100 CALM      29.98S
ALMA           CLEAR     70  69  97 CALM      29.97F
6HR MIN TEMP:  69; 6HR MAX TEMP:  77;

WAYCROSS       CLEAR     73  73  99 CALM      29.96F
JESUP          FAIR      72  72 100 NE3       29.97F
BAXLEY         FAIR      70  70 100 CALM      29.97F
BRUNSWICK      CLOUDY    73  73 100 CALM      29.96S
SAINT SIMONS   CLOUDY    75  72  90 W5        29.94F
6HR MIN TEMP:  75; 6HR MAX TEMP:  79; 6HR PCP:  0.05;


$$

SCZ027-028-034-036>038-045-046-048>050-GAZ119-141-270700-
...LAKE AND SUPPLEMENTAL COASTAL OBSERVATIONS...

STATION/POSITION TIME  TEMP    WIND        PRES    WAVE   SWELL
                       AIR SEA DIR/SP/G            HT/PER HT/PER/DIR
                 (UTC) (F)     (DEG/KT/KT) (MB)    (FT/S) (FT/S/D)
WINYAH BAY       0445   78     160/  4     1015.0
LAKE MURRAY      0520   76        CALM     1015.9F
ACE BASIN NERRS  0445   72     360/  1     1016.0
FORT PULASKI     0542      81  270/  3/  3 1015.4F
SAPELO ISLAND    0500   75        CALM     1015.0

$$

ANZ835-935-AMZ111-154-330-350-352-354-370-450-454-472-270700-
...C-MAN AND BUOY OBSERVATIONS...

STATION/POSITION TIME  TEMP    WIND        PRES    WAVE   SWELL
                       AIR SEA DIR/SP/G            HT/PER HT/PER/DIR
                 (UTC) (F)     (DEG/KT/KT) (MB)    (FT/S) (FT/S/D)
BUOY 41004       0550   80 82  110/ 10/ 12 1014.0F   3/ 5   3/ 60/ 5
BUOY 41008       0550   77 82   70/ 14/ 16 1013.7F   3/ 5   2/110/ 9
FOLLY BEACH CMAN 0600   76     340/  4/  6 1015.0F
CAPERS NEARSHORE 0508   79 81  100/  6/ 10 1015.2F
FRIPP NEARSHORE  0508   78 81   50/  4/ 12 1015.0F


STATION/POSITION TIME  TEMP    WIND        PRES    WAVE   SWELL
                       AIR SEA DIR/SP/G            HT/PER HT/PER/DIR
                 (UTC) (F)     (DEG/KT/KT) (MB)    (FT/S) (FT/S/D)
5E ST. MARYS GA  0501      82                N/A     3/ 5
FRYING PAN BUOY  0550   80 82  100/ 14/ 17 1015.5R   4/ 5   2/110/ 8
BUOY 41025       0550   79 85  160/ 16/ 19 1016.6F   4/ 6   2/ 70/ 7
CAPE LOOKOUT NC  0600   79     150/ 10/ 11 1016.3F
BUOY 41002       0550   81 83  120/ 19/ 23 1014.8F   5/ 5   2/ 80/14
BUOY 41010       NOT AVBL
ST AUGUSTINE FL  0600   75 83  280/  4/  5 1014.3F


$$




USA.gov is the U.S. government's official web portal to all federal, state and local government web resources and services.